Regional Weather Roundup
Issued by NWS Sterling, VA

Home | Current Version | Previous Version | Text Only | Print | Product List | Glossary On
Versions: 1 2 3 4 5 6 7 8 9 10 11 12 13 14 15 16 17 18 19 20 21 22 23 24 25 26 27 28 29 30 31 32 33 34 35 36 37 38 39 40 41 42 43 44 45 46 47 48 49 50
525
ASUS41 KLWX 102010
RWRLWX

REGIONAL WEATHER ROUNDUP
NATIONAL WEATHER SERVICE BALTIMORE MD/WASHINGTON DC
300 PM EST WED FEB 10 2016

Note: "FAIR" indicates few or no clouds below 12,000 feet
with no significant weather and/or obstructions to visibility.
 TC=TEMPERATURE CELSIUS

 * =Non NWS site. Station does not report precipitation (e.g. rain,
    snow, etc.), thunder, or fog.

DCZ001-MDZ009-015-VAZ040>042-051-053>054-102100-
WASHINGTON METRO

CITY           SKY/WX    TMP DP  RH WIND       PRES   REMARKS
WASHINGTON NAT PTSUNNY   38  16  40 NW9G18    29.79R
DULLES         PTSUNNY   34  14  43 NW12G20   29.78S WCI  25
ANDREWS AFB    CLOUDY    36  15  43 NW14G20   29.76R WCI  27
FT BELVOIR     CLOUDY    37  15  39 NW10      29.78S
QUANTICO       PTSUNNY   39  15  37 NW8G16    29.80R
COLLEGE PARK*  CLOUDY    36  14  41 W12       29.79R WCI  27
LEESBURG*      CLOUDY    36  21  55 NW13      29.79S WCI  27
MANASSAS*      CLOUDY    37  18  44 N8        29.78S
GAITHERSBURG*  PTSUNNY   30  12  47 NW13G21   29.81R WCI  20

$$

MDZ006>007-011-014-102100-
BALTIMORE METRO

CITY           SKY/WX    TMP DP  RH WIND       PRES   REMARKS
BWI AIRPORT    MOSUNNY   37  16  42 W17       29.77R WCI  27
MD SCIENCE CTR   N/A     34  14  43 MISG      29.77F
MARTIN STATE   PTSUNNY   36  19  51 W17       29.79R WCI  25
ANNAPOLIS      MOSUNNY   36  17  46 NW15      29.78R WCI  27
FORT MEADE*    MOSUNNY   34  16  47 NW10G18   29.80S WCI  26

$$

MDZ012-015-019>023-102100-
MARYLAND EASTERN SHORE

CITY           SKY/WX    TMP DP  RH WIND       PRES   REMARKS
OCEAN CITY     MOSUNNY   38  21  50 NW13G20   29.76F
SALISBURY      MOSUNNY   38  20  48 W17       29.76F WCI  28
BAY BRIDGE AP*   N/A     36  18  48 W10G21    29.78R WCI  28
CAMBRIDGE*     MOSUNNY   37  19  48 NW14G20   29.77S WCI  29
EASTON*        MOSUNNY   37  19  48 W9        29.80S

$$

MDZ017>025-102100-
SOUTHERN MARYLAND

CITY           SKY/WX    TMP DP  RH WIND       PRES   REMARKS
PATUXENT RIVER PTSUNNY   38  18  44 W15       29.77S
ST INIGOES     MOSUNNY   38  22  52 W8        29.78S
LEONARDTOWN*   CLOUDY    37  19  48 W7        29.79R

$$

MDZ003>005-102100-
NORTH CENTRAL MARYLAND

CITY           SKY/WX    TMP DP  RH WIND       PRES   REMARKS
FREDERICK*     PTSUNNY   30  19  64 NW12G20   29.82R WCI  21
HAGERSTOWN APT CLOUDY    29  13  51 W16       29.77R WCI  17
WESTMINSTER*   CLOUDY    30  23  74 W12G20    29.74R WCI  21

$$

MDZ501>502-102100-
WESTERN MARYLAND

CITY           SKY/WX    TMP DP  RH WIND       PRES   REMARKS
OAKLAND*       CLOUDY    10   5  79 W15G24    29.67S HAZE    WCI  -6
CUMBERLAND*    MOSUNNY   27  10  50 SW13G24   29.87R WCI  16

$$

VAZ025>031-102100-
SHENANDOAH VALLEY

CITY           SKY/WX    TMP DP  RH WIND       PRES   REMARKS
WINCHESTER*    CLOUDY    32  14  47 NW21      29.77S WCI  20
FRONT ROYAL*   CLOUDY    32  12  43 W13       29.76R WCI  22
LURAY*         CLOUDY    30  10  43 W14G22    29.79R WCI  20
NEW MARKET*    CLOUDY    29   8  40 W8G22     29.79R WCI  21
STAUNTON*      CLOUDY    32   7  35 W10G16    29.80R WCI  24
WAYNESBORO*    FAIR      28   4  34 W7G18     29.77S

$$

WVZ021-048>050-054>055-102100-
EASTERN WEST VIRGINIA PANHANDLE

CITY           SKY/WX    TMP DP  RH WIND       PRES   REMARKS
MARTINSBURG    FAIR      30   9  41 W18G30    29.80R WCI  18
PETERSBURG*    PTSUNNY   24   6  47 W15G24    29.86R WCI  11

$$

VAZ036>039-050-102100-
CENTRAL FOOTHILLS

CITY           SKY/WX    TMP DP  RH WIND       PRES   REMARKS
CHARLOTTESVILL CLOUDY    36  11  35 SW8       29.79R
CULPEPER*      CLOUDY    36  15  41 W6        29.78S
ORANGE*        CLOUDY    37  14  38 SW13G20   29.79R
GORDONSVILLE*  CLOUDY    36  13  37 W9G16     29.78R
WARRENTON*     CLOUDY    38  21  50 SW5       29.77R

$$

VAZ055>057-102100-
NORTH AND CENTRAL PIEDMONT

CITY           SKY/WX    TMP DP  RH WIND       PRES   REMARKS
FREDERICKSBRG* CLOUDY    38  17  41 NW8       29.78R
STAFFORD*      CLOUDY    36  14  40 NW3       29.82R

$$

NCZ024-NYZ072-PAZ021-071-VAZ022-071-102100-
OTHER REGIONAL OBSERVATIONS

CITY           SKY/WX    TMP DP  RH WIND       PRES   REMARKS
NEW YORK CITY  CLOUDY    38  19  46 W10G18    29.64R
PHILADELPHIA   CLOUDY    35  16  45 W15       29.73R WCI  25
PITTSBURGH     LGT SNOW  20  11  68 W9G20     29.80S WCI   9
ROANOKE        CLOUDY    26   5  40 NW22G31   29.88R WCI  12
RICHMOND       PTSUNNY   39  14  36 W16G22    29.79S
RALEIGH        PTSUNNY   37  14  38 W10G22    29.87R

$$

ANZ530>537-102100-
MARINE OBSERVATIONS

STATION/POSITION TIME  TEMP    WIND        PRES
                       AIR SEA DIR/SP/G
                 (UTC) (F)     (DEG/KT/KT) (MB)
THOMAS PT LIGHT  2000   35 39  310/ 12/ 14 1009.0R
BALT KEY BRIDGE  1900   34     270/ 17/ 22 1007.7F
COVE POINT       1900   36     310/  8/ 14 1008.7F
LEWISETTA        1900   36 41  310/ 11/ 16 1008.2F
SOLOMONS ISLAND  1900   38 41  320/  7/ 11   N/A
PINEY POINT      1900          330/ 11/ 14   N/A

$$





USA.gov is the U.S. government's official web portal to all federal, state and local government web resources and services.